Simultaneous Nadir Overpasses (SNOs) Predictions

Prediction of SNOs between FY3D and LANDSAT-8 Satellite Orbit:

Table of predicted SNOs for the next 14.0 days since TLE Epoch: 6/3/2023
Index Date (FY3D) Time (FY3D) Lat,Lon (FY3D) SZA (FY3D ) Date (LANDSAT-8) Time (LANDSAT-8) Lat,Lon (LANDSAT-8) SZA (LANDSAT-8 ) Distance(km) Time Diff (sec)
1 06/03/2023 20:37:52 -73.07, 51.35 129.38 06/03/2023 20:38:48 -73.08, 51.44 129.37 2.99 56
2 06/03/2023 21:28:36 72.96,-141.09 50.51 06/03/2023 21:28:16 72.95,-141.19 50.49 3.39 20
3 06/06/2023 12:05:03 73.06, -0.37 50.31 06/06/2023 12:05:52 73.08, -0.34 50.33 2.61 49
4 06/06/2023 12:55:47 -72.99, 167.09 129.76 06/06/2023 12:55:22 -72.96, 167.06 129.79 3.31 25
5 06/09/2023 03:32:13 -73.09, -52.20 129.91 06/09/2023 03:32:57 -73.08, -52.11 129.92 3.36 44
6 06/09/2023 04:22:57 72.98, 115.34 49.99 06/09/2023 04:22:24 72.99, 115.36 49.99 0.65 33
7 06/11/2023 18:59:23 73.04,-103.85 49.85 06/11/2023 19:00:01 73.03,-103.96 49.83 3.57 38
8 06/11/2023 19:50:07 -72.97, 63.61 130.23 06/11/2023 19:49:30 -72.97, 63.56 130.23 1.69 37
9 06/14/2023 10:26:34 -73.09,-155.70 130.27 06/14/2023 10:27:06 -73.06,-155.67 130.30 3.41 32
10 06/14/2023 11:17:18 72.98, 11.84 49.63 06/14/2023 11:16:33 72.96, 11.78 49.61 2.93 45
11 06/17/2023 01:53:44 73.05, 152.62 49.59 06/17/2023 01:54:08 73.08, 152.62 49.62 2.93 24



Historial Predications of SNOs between FY3D and LANDSAT-8
